Regional Weather Roundup
Issued by NWS

Home | Current Version | Previous Version | Text Only | Print | Product List | Glossary Off
Versions: 1 2 3 4 5 6 7 8 9 10 11 12 13 14 15 16 17 18 19 20 21 22 23 24 25 26 27 28 29 30 31 32 33 34 35 36 37 38 39 40 41 42 43 44 45 46 47 48 49 50

000
ASUS43 KLOT 221710
RWRIL

ILLINOIS REGIONAL WEATHER ROUNDUP
NATIONAL WEATHER SERVICE CHICAGO/ROMEOVILLE IL
1200 PM CDT WED OCT 22 2014

NOTE: "FAIR" INDICATES FEW OR NO CLOUDS BELOW 12,000 FEET WITH NO
SIGNIFICANT WEATHER AND/OR OBSTRUCTIONS TO VISIBILITY.

* THESE STATIONS ARE NOT UNDER NWS QUALITY CONTROL. THEY ALSO MAY NOT
  REPORT WEATHER SUCH AS PRECIPITATION OR FOG.

ILZ001-002-007-009-015-016-024-221800-
NORTHWEST ILLINOIS

CITY           SKY/WX    TMP DP  RH WIND       PRES   REMARKS
MOLINE         SUNNY     55  41  59 S9        30.32F
STERLING*      SUNNY     55  37  50 S7        30.34F
SAVANNA*       SUNNY     56  38  50 SE9       30.33F
$$

ILZ003-004-008-010-011-017-018-221800-
NORTH CENTRAL ILLINOIS

CITY           SKY/WX    TMP DP  RH WIND       PRES   REMARKS
ROCKFORD       SUNNY     54  39  57 S8        30.37F
FREEPORT*      SUNNY     52  40  65 SE9       30.36F
ROCHELLE*      SUNNY     53  38  55 S6        30.35F
DE KALB*       SUNNY     52  40  64 SE6       30.36S
PERU*          SUNNY     54  37  52 S9        30.36S
$$

ILZ005-006-012>014-019>023-221800-
NORTHEAST ILLINOIS

CITY           SKY/WX    TMP DP  RH WIND       PRES   REMARKS
CHICAGO-OHARE  MOSUNNY   53  37  54 VRB3      30.36F
CHICAGO-MIDWAY MOSUNNY   54  40  59 NE6       30.37S
AURORA         SUNNY     54  39  57 E3        30.37S
LANSING*       SUNNY     52  38  58 E5        30.37F
JOLIET*        SUNNY     52  39  61 CALM      30.37S
WAUKEGAN       PTSUNNY   51  40  65 E8        30.36S
DUPAGE AIRPORT MOSUNNY   56  41  57 S7        30.35S
KANKAKEE*      SUNNY     53  40  60 NE7       30.37S
WHEELING       MOSUNNY   54  39  57 E5        30.37F
MORRIS*        SUNNY     54  40  60 CALM      30.36S
ROMEOVILLE*    SUNNY     53  38  58 NE6       30.37S
NORTHERLY ISL    N/A     50  40  68 E5          N/A
$$

LMZ740>746-221800-
SOUTHERN LAKE MICHIGAN

STATION/POSITION SKY/WX   TEMP    WIND        PRES    VSBY  WAVE
                          AIR SEA DIR/SP/G                  HT/PER
                          (F)     (DEG/KT/KT) (MB)    (MI)  (FT/S)
SOUTHERN BUOY              46 54  110/  4/  6 1029.3F         1/ 5
WAUKEGAN HARBOR            49     110/  7/  8   N/A
HARRISON CRIB              48      90/  5/  8   N/A
BURNHAM HARBOR             50      90/  4/  7   N/A
CALUMET HARBOR             48      50/  5/  8 1027.3S
MICHIGAN CITY              47      20/  8/  9   N/A
$$

ILZ025>027-034>036-040-047-049-050-058-095>099-221800-
WEST-CENTRAL ILLINOIS

CITY           SKY/WX    TMP DP  RH WIND       PRES   REMARKS
QUINCY         SUNNY     56  41  57 SE7       30.31F
GALESBURG*     SUNNY     54  43  66 S7        30.33S
MACOMB*        SUNNY     53  41  62 SE9G16    30.34F
JACKSONVILLE*  SUNNY     57  43  58 S9        30.33F
PITTSFIELD*    SUNNY     57  42  57 E6        30.33S
$$

ILZ028>032-037-038-041>044-048-051>054-059>061-221800-
CENTRAL ILLINOIS

CITY           SKY/WX    TMP DP  RH WIND       PRES   REMARKS
PONTIAC        SUNNY     54  35  47 E6        30.37S
BLOOMINGTON    SUNNY     55  40  57 SE7       30.36S
DECATUR        SUNNY     55  39  54 E8        30.35F
PEORIA         SUNNY     56  40  55 S10       30.34F
LACON*         SUNNY     54  37  52 S7        30.34F
LINCOLN*       SUNNY     57  40  52 SE5       30.34S
SPRINGFIELD    SUNNY     56  41  57 SE9       30.34F
TAYLORVILLE    SUNNY     54  39  58 SE6       30.34F
$$

ILZ033-039-045-046-055>057-062-063-221800-
EAST-CENTRAL ILLINOIS

CITY           SKY/WX    TMP DP  RH WIND       PRES   REMARKS
CHAMPAIGN      SUNNY     54  37  52 SE5       30.35F
DANVILLE*      SUNNY     53  36  53 E7        30.33F
RANTOUL*         N/A     56  36  46 NE3       30.35F
MATTOON        SUNNY     53  38  56 CALM      30.34S
PARIS*         SUNNY     55  39  55 NE7       30.35F
$$

ILZ079-100>102-221800-
SOUTHWEST ILLINOIS

CITY           SKY/WX    TMP DP  RH WIND       PRES   REMARKS
ALTON          MOSUNNY   57  41  54 E8        30.34S
BELLEVILLE     SUNNY     58  46  66 NE5       30.32F
CAHOKIA*       SUNNY     58  44  60 CALM      30.33S
SPARTA*        SUNNY     55  44  64 CALM      30.34S
$$

ILZ064>066-069>071-074>076-080>082-084>086-088>090-092>094-221800-
SOUTH-CENTRAL ILLINOIS

CITY           SKY/WX    TMP DP  RH WIND       PRES   REMARKS
CARBONDALE     SUNNY     57  42  57 NE5       30.32S
CAIRO*         SUNNY     62  44  51 NE6       30.31S
EFFINGHAM*     SUNNY     56  35  44 E5        30.34F
MARION         MOSUNNY   57  45  62 SE12      30.33S
MT. VERNON     SUNNY     55  43  62 E6        30.34S
CENTRALIA*     SUNNY     56  40  56 CALM      30.33S
SALEM*         SUNNY     58  44  58 NE6       30.33F
METROPOLIS*    SUNNY     59  44  56 NE6       30.30S
$$

ILZ067-068-072-073-078-083-087-091-221800-
SOUTHEAST ILLINOIS

CITY           SKY/WX    TMP DP  RH WIND       PRES   REMARKS
LAWRENCEVILLE  SUNNY     56  40  55 NE7       30.34S
FLORA*         SUNNY     55  39  54 CALM      30.34F
FAIRFIELD*     SUNNY     56  39  53 N7        30.32S
HARRISBURG*    SUNNY     57  42  58 NE3       30.33F
ROBINSON*      SUNNY     58  40  52 NE5       30.35F
CARMI*         SUNNY     59  42  54 NE3       30.32S
$$

ABBREVIATIONS USED IN REMARKS
   TC - TEMPERATURE IN CELSIUS
  WCI - WIND CHILL INDEX
   HX - HEAT INDEX
  VSB - VISIBILITY
$$




USA.gov is the U.S. government's official web portal to all federal, state and local government web resources and services.